Location: Beaurecueil
(43.5122°N, 5.5450°E)
Time: 20:28:02
(UTC+00:00)

Cosmos 1072 Rocket - Pass Details

Date: 18 September 2020
Orbit: 949 x 1008 km, 82.9° (Epoch: 27 October)

Event Time Altitude Azimuth Distance (km) Brightness Sun altitude
Rises 18:46:27 0° 176° (S) 3,640 7.3 -12.4°
Reaches altitude 10° 18:48:57 10° 174° (S) 2,705 6.6 -12.8°
Maximum altitude 18:55:04 66° 93° (E) 1,070 4.5 -13.9°
Drops below altitude 10° 19:01:20 10° 13° (NNE) 2,764 6.9 -15.0°
Sets 19:03:54 0° 11° (N) 3,725 7.6 -15.4°
